Temperature
21 21 20 20 20 19 19 19 19 19 19 18 18 18 18 18 18 17 17 17 17 17 17 17 17 17 17 17 17 17 16 16 16 16 16 16 16 16 16 16 16 16 16
21 21 20 20 20 19 19 19 19 19 18 18 18 18 18 18 18 18 17 17 17 17 17 17 17 17 17 17 16 16 16 16 16 16 16 15 15 15 15 15 15 15 15
21 20 20 20 19 19 19 19 19 18 18 18 18 18 18 18 18 17 17 17 17 17 17 16 16 16 16 16 16 16 16 15 15 15 15 15 15 15 15 15 15 15 15
20 20 20 20 19 19 19 19 19 18 18 18 18 18 17 17 17 17 17 17 17 16 16 16 16 16 16 16 15 15 15 15 15 15 15 14 14 14 14 14 14 14 14
20 20 20 19 19 19 19 18 18 18 18 18 18 17 17 17 17 17 17 17 16 16 16 16 16 16 16 15 15 15 15 15 14 14 14 14 14 14 14 14 14 14 14
20 19 19 19 19 18 18 18 18 18 18 18 18 17 17 17 17 17 17 17 16 16 16 16 16 15 15 15 15 15 14 14 14 14 14 14 13 13 13 13 13 13 13
19 19 19 19 18 18 18 18 18 18 18 17 17 17 17 17 17 16 16 16 16 16 15 15 15 15 15 15 15 14 14 14 14 14 13 13 13 13 13 13 13 13 13
19 19 18 18 18 18 18 18 18 17 17 17 17 17 17 17 17 16 16 16 16 15 15 15 15 15 14 14 14 14 14 14 13 13 13 13 13 13 13 12 12 12 12
18 18 18 18 17 18 18 18 17 17 17 17 17 17 17 16 16 16 16 15 15 15 15 15 14 14 14 14 14 14 14 13 13 13 13 13 13 13 12 12 12 12 12
18 18 18 18 17 17 17 17 17 17 17 17 16 16 16 16 16 16 15 15 15 15 14 14 14 14 14 14 13 13 13 13 13 13 13 13 12 12 12 12 12 12 12
18 18 17 17 17 17 17 17 17 17 16 16 16 16 16 16 15 15 15 15 14 14 14 14 14 14 13 13 13 13 13 13 12 12 12 12 12 12 12 12 12 12 12
17 17 17 17 17 17 17 16 16 16 16 16 15 15 15 15 15 15 15 14 14 14 14 13 13 13 13 13 13 12 12 12 12 12 12 12 12 12 12 12 12 12 11
17 17 17 16 16 16 16 16 16 16 16 15 15 15 15 15 15 14 14 14 14 13 13 13 13 13 13 12 12 12 12 12 12 11 12 11 11 11 11 11 11 11 11
17 16 16 16 16 16 16 15 15 15 15 15 15 15 15 14 14 14 14 14 13 13 13 12 12 12 12 12 12 11 11 11 11 11 11 11 11 11 11 11 11 11 11
16 16 16 16 16 15 15 15 15 15 15 15 15 15 14 14 14 14 14 14 13 13 13 12 12 12 12 11 11 11 11 11 11 11 10 10 11 10 10 10 10 10 10
15 15 15 15 15 15 15 15 15 15 15 15 14 14 14 14 14 14 13 13 13 13 12 12 12 12 11 11 11 11 11 11 10 10 10 10 10 10 10 10 10 10 10
15 15 15 15 14 14 14 14 14 14 14 14 14 14 14 14 14 13 13 13 12 12 12 12 12 11 11 11 11 10 10 10 10 10 10 10 10 10 10 10 10 10 9
15 15 14 14 14 14 14 14 14 14 14 14 13 13 13 13 13 13 13 12 12 12 12 11 11 11 11 10 10 10 10 10 10 10 9 9 9 9 9 9 9 9 9
14 14 14 14 14 14 14 13 13 13 13 13 13 13 13 13 13 12 12 12 12 12 11 11 11 11 10 10 10 10 10 9 9 9 9 9 9 9 9 9 9 9 9
14 14 14 13 13 13 13 13 13 13 13 13 13 13 13 12 12 12 12 12 11 11 11 11 10 10 10 10 10 9 9 9 9 9 9 9 9 9 9 9 9 9 9
13 13 13 13 13 13 13 12 12 12 12 12 12 12 12 12 12 12 11 11 11 11 11 10 10 10 10 9 9 9 9 9 9 9 9 9 9 9 9 9 9 9 8
13 13 13 13 13 12 12 12 12 12 12 12 12 11 11 11 11 11 11 11 11 10 10 10 10 10 9 9 9 9 9 9 9 9 9 9 9 9 9 9 9 8 8
12 12 12 12 12 12 12 12 12 11 11 11 11 11 11 11 11 11 11 10 10 10 10 10 9 9 9 9 9 9 9 8 8 8 8 8 8 8 8 8 8 8 8
12 12 12 12 12 12 12 11 11 11 11 11 11 11 11 10 10 10 10 10 10 10 9 9 9 9 9 8 8 8 8 8 8 8 8 8 8 8 8 8 8 8 8
12 12 11 11 11 11 11 11 11 11 11 11 11 10 10 10 10 10 9 9 9 9 9 9 9 9 8 8 8 8 8 8 8 8 8 8 8 8 7 7 7 7 7
11 11 11 11 11 11 11 11 11 11 11 10 10 10 10 10 10 9 9 9 9 9 9 9 8 8 8 8 8 8 8 8 8 8 8 7 7 7 7 7 7 7 7
Wind_Speed
10 9 8 7 6 6 5 5 4 3 4 4 4 4 3 3 3 2 2 2 2 1 0 1 0 0 0 0 0 1 1 2 2 3 2 1 1 2 2 2 2 2 2
9 8 8 7 6 6 6 6 5 5 4 4 3 3 4 3 4 4 4 3 2 2 1 1 1 0 0 1 0 0 1 2 2 2 2 1 2 2 2 2 2 2 1
9 8 8 7 7 7 6 6 6 5 4 4 3 4 4 4 4 4 4 4 3 3 3 2 2 1 0 1 0 0 0 0 1 2 2 1 1 1 1 2 2 2 1
8 9 8 8 8 8 7 6 6 6 5 5 4 4 4 4 4 4 4 4 3 3 3 3 2 2 2 1 1 0 0 1 1 0 1 1 1 1 1 1 2 2 2
7 8 8 8 7 6 6 6 5 5 6 5 5 5 4 4 5 5 4 4 4 3 2 2 2 2 2 2 1 1 1 1 0 0 1 1 1 1 1 1 1 2 2
7 7 6 6 6 6 6 5 5 5 4 4 4 4 4 5 5 5 5 3 3 3 3 2 2 1 1 1 1 1 2 2 2 2 1 1 2 2 1 1 1 1 2
5 6 6 6 6 6 6 5 5 5 5 4 4 4 4 4 5 5 5 4 4 3 3 2 1 1 1 1 1 1 1 1 3 4 3 3 3 3 2 1 1 2 3
4 5 6 5 5 5 5 5 5 4 4 5 4 4 3 3 4 5 5 4 3 3 3 3 3 2 1 1 1 1 1 2 2 2 3 4 4 4 3 3 3 2 2
4 4 5 6 6 5 6 6 5 5 4 4 3 4 4 3 4 5 6 3 3 2 2 3 3 3 2 3 2 1 1 3 3 1 1 2 3 4 3 1 1 1 1
3 4 4 5 6 7 7 6 5 5 5 4 3 4 4 3 4 6 6 4 3 2 1 1 3 3 3 2 2 2 2 3 3 3 3 4 3 3 3 3 3 3 2
2 2 2 4 5 5 5 4 4 4 4 3 3 3 3 4 4 6 7 4 4 3 2 2 2 3 3 2 2 3 4 3 1 1 1 2 2 2 2 2 2 3 3
2 1 2 3 4 3 4 4 4 5 5 4 3 2 2 3 4 5 7 6 6 4 4 3 3 5 4 3 2 2 2 1 0 0 1 1 2 2 2 2 1 2 3
1 1 2 2 3 2 3 4 4 4 4 4 4 4 3 2 3 5 6 6 6 4 4 5 5 4 3 2 2 1 1 1 1 1 1 2 2 2 1 1 1 1 2
1 2 2 2 1 1 2 3 4 4 4 4 4 4 4 3 3 3 3 3 3 3 2 2 3 3 2 2 1 1 1 2 2 2 2 2 2 1 1 1 0 1 1
2 2 2 1 1 1 1 1 3 4 6 7 6 5 5 5 6 8 6 4 4 4 3 2 1 1 1 1 1 1 1 1 1 1 1 1 1 1 1 1 0 0 1
2 2 2 1 1 1 1 1 3 1 2 5 7 6 5 7 7 8 8 7 7 7 5 3 2 3 3 3 2 2 2 2 2 2 2 2 2 2 2 1 0 1 1
3 2 1 1 2 2 2 2 1 3 3 1 3 5 5 6 6 7 7 6 6 7 4 3 3 3 3 3 3 3 3 3 2 2 2 2 2 2 2 1 1 1 1
2 2 2 2 2 2 2 2 2 3 1 1 2 1 2 3 5 6 7 6 3 3 3 4 4 4 3 3 3 3 3 3 2 2 3 3 3 2 2 2 2 2 2
2 2 2 2 2 1 1 1 1 2 2 1 1 1 0 1 2 3 5 3 4 4 4 4 4 4 4 4 4 4 3 3 3 3 3 4 3 3 3 3 3 4 3
1 1 1 1 1 1 0 1 1 1 1 1 1 1 1 2 2 2 3 2 3 3 4 4 3 3 3 4 3 3 3 3 3 3 4 4 4 3 4 4 3 3 3
1 1 1 1 1 1 1 2 2 2 2 2 2 2 5 3 3 4 4 3 4 4 3 3 3 3 3 3 3 3 4 3 3 3 3 3 3 3 3 3 3 3 3
1 1 1 1 1 1 2 2 2 2 2 2 2 2 5 3 3 3 3 4 4 4 3 4 4 3 3 3 3 3 3 3 3 3 3 3 2 2 2 2 2 2 2
1 1 1 1 1 1 1 1 1 2 2 2 2 2 3 3 3 3 4 4 3 3 3 3 3 3 3 3 4 4 4 4 4 3 3 3 3 3 2 3 4 3 3
2 2 2 1 1 1 1 1 2 2 2 2 2 3 3 4 4 4 4 3 3 3 3 3 4 4 3 3 3 4 4 5 5 4 5 4 4 3 3 3 3 4 4
1 1 1 1 1 1 1 1 2 2 2 2 2 2 2 3 3 3 3 3 3 3 3 3 3 3 4 4 3 3 4 4 5 5 4 3 4 4 3 3 3 3 3
1 1 1 1 1 2 2 2 2 2 2 2 3 3 3 3 3 2 2 2 2 2 2 3 3 4 4 4 4 4 4 4 4 4 4 3 3 3 3 3 3 3 3
Wind_Direction
188 190 190 191 187 181 185 196 192 185 185 187 188 186 185 192 184 169 187 181 181 215 235 138 233 192 94 359 84 119 133 146 207 273 270 284 302 305 317 308 304 289 251
188 185 188 189 183 184 188 198 196 192 194 188 177 175 180 184 183 182 197 194 191 203 211 166 255 274 23 334 63 108 166 167 174 242 286 292 276 271 290 308 326 324 273
180 183 188 190 188 191 192 194 194 191 193 190 176 178 188 190 190 194 194 196 201 210 206 200 229 184 251 289 318 228 270 152 155 182 260 273 280 292 340 337 341 340 307
180 184 191 197 198 193 191 192 195 191 191 193 193 194 196 195 196 197 196 197 200 211 208 205 209 190 202 215 206 206 169 30 67 132 280 302 297 318 47 325 328 318 306
179 187 199 199 192 186 189 193 196 196 197 195 195 204 205 203 203 194 199 196 194 199 206 214 213 197 193 188 183 182 168 177 149 143 275 311 308 331 306 269 283 302 302
178 189 192 183 180 185 190 190 192 200 203 199 202 206 212 223 214 202 195 192 190 192 203 217 225 210 175 126 103 163 180 185 193 183 215 237 269 266 271 260 235 317 299
176 184 183 181 182 187 187 185 195 204 201 203 206 199 208 220 206 198 190 178 184 194 194 195 208 194 150 107 42 31 8 284 195 182 196 223 234 239 229 251 245 246 252
179 185 188 182 191 194 189 195 204 202 201 205 207 202 205 222 204 195 185 169 167 177 182 177 177 182 186 155 127 54 348 319 260 205 205 226 234 232 218 219 220 254 274
186 200 197 190 192 196 201 207 203 195 202 207 201 185 192 220 201 183 161 151 159 176 189 182 174 178 185 148 133 146 320 315 317 296 229 259 266 266 236 164 158 128 295
206 217 210 196 197 201 206 206 203 194 195 188 187 191 194 211 202 184 166 157 164 182 208 207 187 181 181 163 168 187 250 283 308 339 347 343 328 307 272 200 188 182 207
209 217 218 206 202 203 201 196 185 182 179 176 183 201 194 198 201 185 172 167 174 179 195 224 228 189 179 193 184 200 228 239 265 295 317 327 335 324 306 264 203 187 192
176 195 230 231 221 206 188 189 179 175 181 186 186 203 215 205 192 185 173 176 170 175 203 220 223 203 201 200 199 229 244 223 148 42 345 314 309 304 301 297 258 224 220
140 231 239 236 229 198 188 191 191 188 190 198 195 201 217 217 210 198 187 187 178 181 203 206 207 202 201 211 222 230 221 148 148 183 259 277 276 277 301 332 353 2 342
175 249 249 227 228 224 205 198 198 199 200 203 205 208 212 206 206 204 198 197 183 181 196 200 187 180 181 197 214 206 190 188 179 204 238 266 287 311 315 303 307 360 13
202 224 242 222 199 228 272 246 221 222 211 200 205 201 197 213 220 202 187 190 187 188 167 139 121 113 165 248 261 254 232 198 198 206 219 260 274 283 294 308 247 124 151
203 230 236 238 224 209 212 329 342 285 239 205 194 189 208 213 199 189 190 184 176 165 146 163 189 195 204 212 216 230 233 223 220 214 217 228 236 245 265 274 179 167 210
198 218 221 226 230 222 209 200 276 353 9 293 219 201 196 188 183 178 179 172 167 153 154 184 197 203 209 210 211 213 227 232 213 200 214 231 237 245 247 249 239 223 244
195 203 190 199 213 220 219 211 194 188 189 345 335 255 206 180 170 164 156 135 148 168 185 189 198 204 207 206 212 221 230 231 219 217 221 227 224 228 238 233 220 213 232
190 201 191 191 192 183 196 208 193 181 168 154 48 355 334 135 133 150 150 161 180 195 204 207 206 203 205 207 212 216 219 224 227 219 222 226 224 220 229 228 221 222 221
189 170 159 169 174 156 168 176 176 178 179 170 182 216 138 107 128 169 183 192 194 203 203 208 212 205 202 204 208 210 215 224 225 225 228 230 229 221 224 223 217 216 226
193 180 119 126 163 170 186 209 194 189 194 204 213 201 166 165 183 189 192 199 204 210 210 210 209 211 208 203 206 211 213 224 227 228 230 233 228 227 228 218 214 216 226
186 183 181 190 196 186 203 213 198 203 201 206 221 206 182 177 187 189 196 210 212 211 204 196 205 216 212 206 207 209 217 228 233 234 238 242 241 237 233 226 215 217 222
186 192 189 197 211 220 215 197 187 193 199 204 201 186 183 204 210 207 210 212 206 209 211 199 201 213 217 217 215 208 211 219 221 217 222 231 237 241 237 230 221 220 224
210 205 197 198 205 205 203 208 198 206 211 206 200 195 198 206 214 216 214 214 212 214 213 209 208 212 218 221 222 219 215 217 213 208 205 210 221 231 228 231 227 219 221
199 195 200 197 186 193 199 200 196 200 206 210 210 209 210 211 212 217 221 216 212 210 211 212 207 211 209 199 198 211 217 221 218 210 206 208 213 221 216 220 226 230 228
174 165 170 176 181 178 184 197 203 203 210 214 210 211 209 207 210 211 208 212 214 210 211 211 203 201 200 206 213 210 211 219 221 209 195 199 208 217 214 217 222 225 221
Height
1514 1516 1517 1518 1519 1520 1522 1523 1524 1524 1524 1525 1525 1526 1526 1527 1527 1527 1527 1527 1527 1526 1526 1526 1525 1525 1525 1525 1525 1525 1525 1525 1524 1523 1523 1522 1522 1521 1521 1520 1519 1519 1519
1511 1513 1513 1515 1516 1517 1518 1520 1521 1522 1522 1522 1523 1523 1523 1524 1524 1524 1524 1525 1524 1524 1523 1523 1523 1523 1523 1523 1522 1522 1522 1522 1522 1520 1520 1520 1519 1519 1518 1517 1517 1516 1516
1508 1509 1510 1511 1512 1513 1515 1516 1518 1519 1519 1520 1520 1520 1521 1521 1521 1522 1522 1522 1522 1522 1521 1521 1521 1521 1521 1520 1520 1520 1520 1520 1519 1518 1517 1517 1516 1516 1515 1515 1514 1513 1513
1505 1506 1507 1508 1509 1509 1512 1513 1514 1515 1516 1516 1516 1517 1517 1518 1518 1519 1519 1519 1519 1519 1519 1519 1519 1519 1518 1518 1518 1518 1517 1517 1517 1516 1515 1514 1514 1513 1513 1512 1511 1511 1510
1502 1503 1504 1505 1506 1507 1509 1510 1511 1512 1512 1513 1513 1514 1514 1515 1515 1515 1516 1516 1516 1516 1517 1517 1517 1516 1516 1516 1516 1515 1515 1514 1514 1513 1513 1512 1511 1511 1510 1509 1508 1507 1507
1499 1500 1501 1502 1503 1504 1506 1507 1508 1509 1509 1510 1510 1511 1511 1512 1512 1512 1513 1513 1513 1514 1514 1514 1514 1514 1514 1514 1513 1512 1512 1512 1511 1510 1510 1509 1509 1508 1508 1507 1506 1505 1504
1496 1497 1498 1499 1500 1501 1503 1504 1505 1506 1506 1507 1507 1508 1508 1508 1509 1509 1509 1510 1510 1511 1511 1511 1511 1511 1511 1511 1510 1510 1509 1509 1509 1508 1507 1507 1506 1506 1505 1504 1504 1503 1502
1493 1494 1495 1495 1497 1498 1499 1501 1502 1503 1503 1504 1504 1505 1505 1505 1506 1506 1506 1507 1507 1507 1508 1508 1508 1508 1508 1508 1507 1507 1506 1506 1506 1505 1505 1504 1504 1503 1502 1502 1501 1500 1500
1491 1491 1492 1493 1494 1495 1496 1497 1498 1499 1500 1500 1501 1501 1501 1502 1502 1503 1503 1503 1504 1504 1505 1505 1505 1505 1505 1505 1504 1504 1503 1503 1503 1503 1502 1502 1501 1500 1499 1499 1498 1497 1496
1488 1488 1489 1490 1491 1491 1492 1493 1495 1496 1496 1497 1497 1497 1498 1498 1499 1499 1500 1500 1500 1501 1502 1501 1502 1502 1501 1501 1501 1501 1500 1500 1500 1499 1499 1499 1498 1497 1497 1496 1496 1495 1494
1486 1486 1487 1487 1488 1488 1489 1490 1491 1492 1493 1493 1493 1494 1494 1495 1496 1496 1497 1497 1497 1498 1498 1498 1498 1498 1498 1498 1498 1498 1497 1497 1497 1497 1496 1496 1495 1495 1494 1494 1493 1493 1492
1484 1484 1484 1485 1486 1486 1486 1487 1488 1488 1489 1489 1489 1490 1491 1491 1492 1492 1493 1494 1494 1494 1495 1495 1495 1495 1495 1495 1495 1495 1495 1495 1494 1494 1493 1492 1492 1492 1491 1491 1491 1491 1490
1481 1481 1482 1483 1483 1483 1483 1483 1484 1485 1485 1485 1486 1486 1487 1487 1488 1489 1489 1490 1490 1491 1491 1492 1492 1492 1492 1492 1492 1492 1492 1492 1491 1491 1490 1490 1490 1489 1489 1488 1488 1488 1488
1479 1479 1479 1480 1480 1480 1480 1480 1480 1481 1481 1482 1482 1483 1483 1484 1484 1485 1485 1486 1486 1487 1488 1488 1489 1489 1489 1489 1489 1489 1489 1489 1488 1488 1487 1487 1487 1487 1486 1486 1485 1485 1485
1477 1477 1476 1477 1477 1477 1477 1477 1477 1477 1478 1478 1478 1479 1479 1480 1480 1481 1481 1482 1482 1483 1484 1484 1485 1485 1485 1486 1486 1486 1486 1486 1485 1485 1485 1484 1484 1484 1484 1483 1483 1482 1482
1474 1474 1474 1474 1474 1474 1474 1474 1473 1474 1474 1475 1476 1476 1476 1477 1477 1478 1478 1478 1479 1480 1480 1480 1481 1481 1482 1482 1482 1482 1482 1482 1482 1482 1482 1481 1481 1481 1481 1481 1480 1480 1479
1472 1471 1470 1471 1471 1471 1470 1470 1470 1471 1471 1471 1472 1473 1473 1474 1474 1474 1474 1475 1476 1476 1476 1476 1477 1478 1478 1479 1479 1479 1479 1479 1479 1479 1479 1479 1478 1478 1478 1478 1478 1477 1477
1468 1468 1468 1468 1468 1468 1467 1467 1467 1467 1468 1468 1469 1470 1470 1471 1471 1471 1471 1472 1472 1472 1472 1473 1473 1474 1475 1475 1475 1475 1476 1476 1476 1476 1476 1476 1476 1475 1475 1475 1475 1475 1474
1465 1465 1465 1465 1465 1465 1465 1465 1465 1465 1465 1465 1466 1467 1467 1468 1468 1468 1468 1468 1468 1468 1468 1469 1469 1470 1470 1471 1471 1472 1472 1472 1473 1473 1473 1472 1472 1472 1472 1472 1472 1472 1471
1462 1462 1462 1462 1462 1462 1462 1462 1462 1463 1463 1462 1463 1464 1464 1464 1464 1464 1464 1465 1465 1465 1465 1466 1466 1466 1467 1467 1468 1468 1468 1469 1469 1469 1469 1469 1469 1469 1468 1468 1468 1468 1468
1460 1459 1460 1460 1460 1460 1460 1459 1460 1460 1460 1461 1461 1461 1461 1461 1461 1461 1461 1462 1462 1462 1463 1463 1463 1463 1463 1464 1464 1464 1465 1465 1465 1465 1465 1465 1465 1465 1465 1465 1465 1464 1464
1457 1457 1457 1457 1458 1458 1458 1458 1458 1458 1458 1458 1459 1459 1459 1459 1458 1458 1459 1459 1459 1459 1460 1460 1459 1460 1460 1460 1460 1461 1461 1461 1461 1461 1461 1461 1461 1461 1461 1461 1460 1460 1460
1455 1455 1455 1456 1456 1456 1456 1455 1455 1456 1456 1457 1456 1456 1456 1456 1456 1456 1456 1456 1456 1456 1456 1456 1456 1456 1456 1456 1457 1457 1457 1457 1457 1456 1456 1456 1456 1456 1456 1456 1456 1456 1456
1452 1453 1453 1453 1453 1453 1453 1453 1453 1454 1454 1454 1454 1454 1454 1453 1453 1453 1453 1453 1453 1453 1453 1452 1452 1452 1452 1452 1453 1453 1453 1453 1453 1452 1452 1452 1452 1452 1452 1452 1452 1452 1452
1450 1450 1450 1451 1451 1451 1451 1452 1451 1452 1452 1451 1451 1451 1451 1451 1450 1450 1450 1450 1450 1449 1449 1449 1448 1448 1448 1449 1449 1449 1449 1449 1448 1448 1448 1448 1447 1447 1448 1448 1448 1448 1448
1448 1448 1449 1449 1449 1449 1449 1449 1449 1449 1449 1449 1449 1448 1448 1447 1447 1447 1446 1446 1446 1445 1445 1445 1445 1445 1445 1445 1445 1445 1445 1445 1444 1444 1444 1444 1444 1443 1444 1444 1444 1444 1444